Temperature
20 19 19 19 19 18 18 18 17 17 17 17 17 17 16 16 16 16 15 15 15 15 15 15 15 15 15 15 15 15 14 14 14 13 13 12 12 12 12 12 12 12 12
20 20 19 19 18 18 18 18 17 17 17 16 16 16 16 16 16 16 15 15 15 15 15 15 15 15 15 14 14 14 14 14 14 13 12 12 12 12 12 11 11 11 11
20 19 19 19 18 18 18 17 17 17 17 16 16 16 16 16 16 16 15 15 15 15 15 14 14 14 14 14 14 14 14 14 13 13 12 12 12 11 11 11 11 11 11
20 19 19 19 18 18 18 17 17 17 17 16 16 16 16 15 15 15 15 15 15 15 14 14 14 14 14 14 14 14 13 13 13 13 12 12 12 11 11 11 11 11 11
20 19 19 18 18 18 17 17 17 17 16 16 16 16 15 15 15 15 15 14 14 14 14 14 14 14 14 14 13 13 13 13 13 13 12 12 12 11 11 11 11 11 11
19 19 18 18 18 17 17 16 16 16 16 16 15 15 15 15 15 15 14 14 14 14 14 13 13 14 14 13 13 13 13 13 12 12 12 12 11 11 11 11 11 11 11
19 19 18 18 18 17 16 16 16 16 15 15 15 15 15 15 15 15 14 14 14 13 13 13 13 13 13 13 13 13 12 12 12 12 12 11 11 11 11 11 11 11 11
19 19 18 18 17 17 16 16 16 15 15 15 15 14 14 14 14 14 14 13 13 13 13 13 13 13 13 12 12 12 12 12 12 11 11 11 11 11 11 10 11 11 10
19 19 18 18 17 17 16 16 16 15 15 15 14 14 14 14 14 14 13 13 13 13 13 12 12 13 12 12 12 12 11 11 11 11 11 11 11 11 11 10 11 11 11
19 18 18 17 17 17 16 16 15 15 15 14 14 14 14 14 14 14 13 13 12 12 12 12 12 12 12 12 11 11 11 11 11 11 11 10 10 10 10 10 10 11 11
19 18 18 17 17 16 16 16 15 15 14 14 14 14 14 13 13 13 13 12 12 12 12 12 12 12 12 12 11 11 11 11 11 11 11 10 10 10 10 10 10 10 10
18 18 18 17 17 16 16 15 15 15 14 14 14 13 13 13 13 13 13 12 12 12 12 11 11 11 11 11 11 11 11 11 11 11 11 11 11 10 10 10 9 9 9
18 18 17 17 16 16 16 15 15 15 14 14 14 13 13 13 13 13 13 12 12 12 11 11 11 11 11 11 11 11 11 11 11 11 11 11 10 10 10 10 9 9 9
18 17 17 16 16 16 15 15 14 14 14 14 14 13 13 13 13 12 12 12 12 11 11 11 11 11 11 10 10 10 10 10 10 11 11 10 10 10 10 10 10 10 9
17 17 16 16 15 15 15 14 14 14 14 14 14 13 13 13 13 12 12 12 11 11 11 11 11 11 11 11 10 10 10 10 10 10 10 10 10 10 10 10 9 10 10
16 16 16 15 15 15 14 14 14 14 14 14 13 13 13 13 13 12 12 12 11 11 11 11 11 11 11 11 11 10 10 10 10 10 10 10 10 10 10 10 9 9 9
16 16 15 15 15 15 14 14 14 14 14 13 13 13 13 12 12 12 12 11 11 11 11 11 11 11 10 10 10 10 10 10 9 10 10 10 10 10 10 9 9 9 9
16 15 15 15 15 14 14 14 14 13 13 13 13 13 12 12 12 12 11 11 11 11 11 10 10 10 10 10 10 10 10 10 9 9 9 9 9 9 9 9 9 9 9
16 15 15 15 14 14 14 14 13 13 13 12 12 12 12 11 11 11 11 11 11 10 10 10 10 10 10 10 9 9 9 9 9 9 9 9 9 9 9 9 9 8 8
15 15 15 14 14 14 14 13 13 13 13 12 12 12 12 11 11 11 11 10 10 10 10 10 10 10 9 9 9 9 9 9 8 8 8 8 8 8 8 8 8 8 8
15 15 15 14 14 14 13 13 13 13 13 12 12 12 11 11 11 11 10 10 10 10 10 10 9 9 9 9 9 9 9 8 8 8 8 8 8 8 8 8 8 8 8
14 14 14 14 14 14 13 13 13 12 12 12 12 11 11 11 11 10 10 10 10 10 9 9 9 9 9 9 9 8 8 8 8 8 8 8 7 7 7 7 7 7 7
14 14 14 14 13 13 13 13 13 12 12 12 12 11 11 11 10 10 10 10 9 9 9 9 9 9 9 8 8 8 8 8 8 7 7 7 7 7 7 7 7 7 7
14 14 14 13 13 13 13 13 12 12 12 11 11 11 11 10 10 10 10 9 9 9 9 9 9 9 8 8 8 8 8 7 7 7 7 7 7 7 7 7 7 7 6
13 13 13 13 13 13 13 12 12 12 11 11 11 11 11 10 10 10 10 9 9 9 9 9 9 8 8 8 8 8 8 7 7 7 7 6 6 6 6 6 6 6 6
13 13 13 13 13 13 12 12 12 12 11 11 11 10 10 10 10 10 9 9 9 9 9 9 8 8 8 8 8 7 7 7 7 7 7 6 6 6 6 6 6 6 6
Wind_Speed
6 5 5 5 5 4 3 2 2 2 2 2 2 2 3 3 3 3 3 3 3 3 2 2 2 2 1 1 1 1 1 1 2 2 2 3 3 3 4 5 6 6 9
7 6 6 5 5 4 4 3 3 3 2 2 2 2 3 3 3 4 4 4 4 4 4 4 3 2 3 2 1 2 2 2 3 4 4 3 3 4 4 3 5 6 7
8 7 7 6 6 5 5 4 4 3 3 3 3 3 3 4 4 4 4 4 5 5 5 5 4 4 3 3 2 3 3 4 4 5 4 3 3 3 3 3 4 3 5
8 8 7 7 6 6 6 5 4 4 4 3 3 4 4 4 4 4 5 5 6 6 6 6 5 5 4 4 3 4 4 4 5 5 5 4 3 2 2 2 2 2 3
8 8 7 7 7 7 6 6 5 5 5 4 4 4 4 4 4 4 4 5 6 6 7 7 8 8 9 6 4 4 4 3 4 4 4 4 3 2 1 1 2 2 3
8 8 8 8 8 7 7 7 6 5 5 5 4 4 4 5 7 6 4 5 5 6 6 6 7 7 9 10 10 9 7 3 3 3 3 3 2 1 1 1 2 1 2
9 8 9 9 8 8 8 7 6 6 5 5 5 5 5 6 6 5 4 5 6 5 5 5 5 6 6 7 7 7 8 8 6 3 3 3 2 1 0 1 1 1 2
10 9 9 9 9 8 8 7 6 6 5 5 5 5 5 5 5 3 2 5 6 5 5 5 5 5 5 4 6 6 6 5 4 4 4 3 3 2 1 0 1 2 2
10 10 10 9 9 9 8 8 7 6 6 5 5 5 5 5 3 1 2 4 5 5 5 5 5 5 6 4 4 5 5 4 6 7 6 5 6 5 3 1 0 1 1
10 10 10 9 9 9 9 8 7 6 6 6 5 4 4 4 3 1 3 3 4 4 5 5 7 6 5 5 3 4 3 3 3 4 4 3 3 3 1 2 2 2 1
10 10 10 9 9 9 8 7 7 7 6 6 6 5 4 3 4 2 3 1 2 3 4 4 5 6 5 4 3 3 1 1 2 2 3 2 2 2 2 1 1 3 3
11 10 10 10 9 8 8 7 7 7 7 6 6 5 4 4 3 3 1 2 3 2 2 3 5 6 4 2 2 2 2 5 1 1 1 1 1 1 1 1 0 1 2
11 11 10 10 9 8 8 8 7 7 6 6 6 5 4 4 4 5 4 1 2 1 2 5 5 6 6 4 3 2 3 2 1 1 1 1 0 1 0 1 2 3 3
12 11 10 10 9 8 7 7 6 6 6 6 5 5 5 5 4 5 5 5 5 4 4 5 7 5 4 2 4 4 2 1 2 1 1 0 0 1 1 1 2 1 2
11 10 10 9 8 8 7 4 5 5 3 4 4 4 4 4 3 2 3 4 4 3 4 5 5 4 4 3 2 2 2 2 2 1 2 2 2 2 1 2 2 2 2
10 10 9 8 8 7 7 6 4 3 5 4 4 1 2 4 6 5 3 2 2 0 3 4 3 3 3 3 3 3 3 3 2 2 2 2 2 2 2 2 2 3 3
10 9 8 8 8 7 7 7 6 4 3 3 2 1 2 5 6 6 5 4 3 4 5 4 3 3 3 3 3 3 3 3 3 3 3 2 3 3 3 3 3 3 3
9 9 8 8 7 7 7 7 6 6 6 5 4 4 5 6 6 7 6 6 5 5 5 4 4 4 4 3 3 3 3 3 4 4 3 3 3 3 3 3 3 3 4
8 7 7 7 7 7 6 6 6 6 5 5 5 5 6 7 7 6 7 6 5 5 5 5 5 4 4 4 4 3 3 3 3 3 3 3 3 3 3 4 3 2 4
6 6 7 7 6 6 6 6 6 6 6 5 5 5 6 6 5 6 6 5 5 4 4 4 4 4 3 3 3 3 3 4 3 4 3 3 3 4 4 4 4 4 4
6 6 7 6 6 6 6 6 6 6 6 5 5 5 5 6 6 5 5 5 4 4 4 4 3 4 4 4 3 4 4 4 4 4 4 4 4 3 4 4 4 5 5
5 6 7 6 6 5 5 5 5 5 6 5 4 5 6 5 5 5 5 5 5 4 4 4 4 4 4 4 4 4 4 4 3 4 4 4 4 4 4 4 4 4 5
5 6 6 5 5 6 5 5 5 5 5 5 5 5 5 5 5 5 5 4 4 4 4 4 4 4 4 4 4 4 4 4 3 3 4 4 4 4 4 5 5 6 6
4 5 5 5 5 5 5 5 4 4 4 4 4 4 5 5 5 5 5 4 4 4 5 5 4 4 5 5 4 4 3 3 4 4 5 5 5 5 5 5 5 5 6
5 5 5 5 5 5 5 5 4 5 4 4 4 5 5 5 5 5 5 5 5 5 5 5 4 5 6 6 5 4 2 2 4 5 6 6 6 6 6 6 5 5 5
4 5 4 4 5 5 5 5 5 5 5 5 5 4 5 5 5 5 5 5 5 5 5 5 5 5 5 6 5 3 3 4 5 7 8 7 7 6 5 5 6 6 6
Wind_Direction
173 172 168 163 157 151 143 130 125 109 88 73 61 47 39 35 35 37 37 34 30 29 18 36 37 27 51 69 156 174 150 137 146 136 116 94 86 84 92 89 92 92 86
166 165 163 158 152 152 145 135 129 118 104 92 82 70 59 52 48 47 40 39 39 39 39 46 48 57 69 68 71 79 93 109 142 138 126 116 106 100 93 88 93 88 92
160 159 157 156 156 156 149 142 133 122 113 107 98 83 65 61 58 58 56 54 52 52 53 53 51 58 57 64 73 82 96 107 118 127 119 112 107 100 111 97 91 92 105
158 159 158 158 159 155 148 144 140 132 124 114 99 87 77 70 66 68 73 69 65 61 58 54 52 54 56 62 75 80 92 108 116 121 120 119 113 120 130 129 121 113 99
160 161 160 157 155 152 149 145 138 134 126 116 109 103 98 88 70 73 88 84 78 74 69 64 62 58 46 42 61 80 98 111 119 119 121 121 108 112 115 127 117 128 115
161 161 157 155 154 154 150 144 139 135 126 123 117 106 95 82 62 44 57 89 84 82 78 77 83 76 72 64 57 55 51 76 97 110 113 108 109 104 68 98 121 119 108
158 156 156 156 155 155 151 146 146 144 135 125 117 108 97 83 73 62 40 82 81 75 77 75 77 81 89 92 90 91 71 50 41 60 93 92 106 101 106 109 74 57 57
159 157 157 159 157 155 151 149 148 144 139 133 126 118 113 103 92 83 60 99 88 81 79 79 80 80 72 83 101 96 92 80 67 74 78 75 78 67 285 273 194 169 151
163 163 163 162 158 157 156 153 152 150 146 144 135 131 128 122 111 70 299 113 100 90 83 76 82 91 51 14 103 103 100 107 97 81 68 78 73 61 2 320 353 221 166
168 166 164 163 162 161 158 155 154 153 151 150 141 141 142 141 132 169 283 140 121 117 110 97 71 66 55 10 106 114 115 108 113 122 126 140 136 129 123 323 325 313 304
161 159 159 159 160 158 155 155 155 157 153 154 152 153 147 141 142 137 313 197 153 143 130 119 100 89 74 33 20 85 65 295 153 148 141 136 138 137 146 152 323 322 321
154 153 154 157 158 154 155 157 158 157 158 162 164 165 156 152 132 132 73 351 333 137 131 120 112 120 107 69 64 55 298 274 190 149 132 116 118 115 111 126 164 311 330
153 154 155 157 157 159 163 164 167 173 178 175 176 176 170 160 147 142 148 144 322 167 109 83 115 162 175 157 154 241 248 231 214 203 153 113 107 71 290 202 200 208 223
157 158 160 161 161 163 172 175 178 182 187 186 186 184 176 173 175 174 175 172 176 183 172 162 179 197 210 177 185 202 216 270 293 279 263 263 227 191 235 280 270 232 240
163 164 164 165 164 166 171 175 187 179 183 198 189 187 186 186 156 148 203 187 191 179 191 198 200 194 197 191 196 207 219 210 227 267 272 255 251 255 265 276 283 278 273
167 169 169 169 170 173 169 165 69 72 89 69 33 335 139 112 127 132 134 106 74 153 226 215 214 218 225 220 215 211 218 232 241 249 264 275 274 270 272 275 274 278 285
174 171 174 174 174 179 178 178 174 149 115 114 115 87 122 139 148 157 162 164 184 204 223 227 225 231 239 239 236 234 231 224 241 246 253 264 270 272 274 273 274 282 286
178 172 178 178 179 183 185 187 186 184 185 185 179 175 175 172 174 176 174 179 193 206 227 230 230 232 238 244 246 246 243 233 229 240 248 258 268 274 276 280 282 296 295
178 177 180 180 182 183 186 189 190 190 193 189 175 166 177 179 182 190 195 212 217 215 219 226 235 238 239 238 243 247 252 255 256 256 257 270 275 278 282 285 285 270 284
178 167 173 178 180 181 184 188 190 192 196 196 194 184 171 181 193 192 203 220 225 224 231 234 237 241 238 240 235 236 235 235 236 246 259 265 267 270 269 273 287 288 283
174 169 177 183 183 184 185 190 194 198 202 201 198 177 179 201 207 206 209 211 217 221 226 231 232 231 228 229 230 230 234 236 240 250 253 258 266 268 275 279 282 284 289
178 176 184 191 184 183 184 191 196 201 204 201 189 172 180 216 209 202 207 211 213 217 219 224 229 226 226 227 228 230 232 235 241 249 253 255 255 263 270 280 290 295 291
189 183 183 181 181 173 184 193 197 201 202 198 190 185 191 209 211 209 207 208 204 209 215 222 230 230 222 223 228 234 240 242 245 253 254 254 257 262 267 273 278 282 284
194 190 185 178 178 185 189 189 192 196 197 195 195 195 197 203 211 211 212 209 206 210 213 219 225 224 223 227 231 231 233 252 261 253 259 269 269 270 272 276 279 285 284
198 193 188 182 180 185 188 189 190 191 193 196 199 200 202 205 209 210 208 205 206 209 209 214 221 225 226 230 237 239 181 201 249 268 258 260 265 267 273 279 286 290 289
196 192 189 186 184 188 191 193 194 194 197 199 200 201 204 207 210 207 201 202 205 202 207 211 218 224 228 226 227 214 193 208 231 253 262 266 267 266 273 277 283 283 286
Height
1548 1549 1551 1551 1552 1553 1553 1553 1553 1553 1552 1552 1551 1550 1550 1549 1548 1547 1547 1546 1545 1544 1544 1543 1543 1542 1543 1543 1543 1544 1544 1545 1545 1546 1547 1547 1547 1547 1546 1546 1546 1545 1545
1547 1548 1549 1550 1551 1551 1552 1552 1552 1552 1552 1551 1551 1550 1549 1549 1548 1547 1546 1545 1545 1544 1544 1543 1543 1542 1542 1542 1543 1543 1543 1544 1544 1545 1546 1546 1546 1546 1546 1546 1547 1546 1545
1546 1547 1548 1549 1550 1550 1551 1551 1551 1551 1551 1551 1550 1550 1549 1548 1548 1547 1546 1545 1545 1544 1544 1543 1543 1542 1542 1542 1543 1543 1543 1544 1544 1545 1545 1545 1546 1546 1546 1546 1547 1546 1546
1544 1545 1546 1547 1548 1549 1549 1550 1550 1550 1550 1550 1550 1550 1549 1549 1548 1547 1546 1546 1545 1545 1544 1544 1543 1543 1543 1543 1543 1543 1543 1544 1544 1545 1545 1546 1546 1546 1546 1547 1547 1547 1547
1542 1544 1545 1546 1547 1548 1548 1549 1550 1550 1550 1550 1550 1549 1549 1549 1548 1547 1547 1546 1546 1545 1545 1544 1544 1544 1543 1543 1544 1544 1544 1545 1545 1545 1546 1546 1546 1546 1547 1547 1547 1547 1546
1541 1542 1544 1545 1546 1547 1547 1548 1549 1549 1549 1549 1549 1549 1549 1548 1548 1548 1548 1547 1547 1547 1546 1546 1545 1545 1545 1544 1544 1544 1544 1545 1546 1546 1546 1546 1546 1546 1546 1547 1547 1547 1547
1539 1541 1542 1543 1544 1545 1546 1547 1548 1548 1549 1549 1549 1549 1548 1548 1548 1548 1548 1548 1548 1548 1547 1547 1547 1547 1546 1546 1545 1545 1545 1545 1546 1547 1547 1547 1546 1546 1546 1546 1546 1546 1546
1537 1539 1540 1542 1543 1544 1545 1546 1547 1548 1548 1549 1549 1549 1549 1549 1549 1549 1549 1549 1549 1549 1548 1548 1548 1547 1548 1547 1547 1547 1547 1546 1547 1547 1547 1547 1547 1546 1546 1546 1546 1546 1546
1535 1537 1539 1540 1542 1543 1544 1545 1546 1546 1547 1548 1549 1549 1549 1549 1549 1549 1550 1551 1550 1550 1549 1549 1549 1548 1548 1548 1548 1548 1548 1548 1548 1547 1547 1547 1546 1546 1546 1547 1547 1547 1546
1533 1535 1537 1539 1540 1542 1543 1544 1545 1546 1547 1548 1549 1549 1549 1550 1550 1550 1550 1552 1551 1551 1550 1550 1549 1549 1549 1548 1549 1549 1549 1549 1549 1548 1548 1547 1547 1546 1546 1545 1546 1546 1546
1531 1533 1535 1537 1539 1540 1541 1543 1544 1545 1546 1547 1548 1548 1549 1549 1550 1550 1550 1551 1552 1552 1551 1551 1550 1549 1549 1549 1549 1549 1549 1549 1549 1549 1548 1548 1547 1546 1546 1545 1545 1545 1545
1529 1531 1533 1535 1537 1539 1540 1541 1543 1544 1545 1546 1547 1548 1548 1548 1549 1549 1549 1550 1550 1551 1551 1551 1550 1549 1549 1549 1549 1548 1548 1549 1550 1549 1549 1548 1548 1547 1546 1545 1544 1543 1543
1526 1528 1531 1533 1535 1536 1538 1539 1541 1542 1544 1545 1546 1547 1547 1547 1547 1547 1548 1548 1549 1549 1549 1549 1549 1549 1549 1549 1549 1548 1548 1549 1549 1549 1549 1548 1547 1546 1545 1544 1543 1542 1541
1523 1526 1528 1530 1532 1534 1536 1538 1540 1541 1542 1543 1544 1545 1545 1546 1546 1546 1546 1547 1547 1548 1548 1548 1548 1548 1548 1548 1548 1548 1548 1548 1548 1548 1548 1547 1546 1545 1544 1544 1543 1542 1541
1521 1523 1526 1528 1530 1531 1534 1536 1538 1539 1540 1541 1542 1542 1543 1543 1544 1544 1545 1546 1546 1547 1547 1547 1548 1548 1547 1547 1547 1547 1547 1546 1546 1546 1546 1545 1545 1544 1543 1542 1541 1541 1540
1518 1521 1523 1525 1527 1529 1531 1532 1534 1535 1536 1537 1538 1540 1540 1540 1540 1541 1542 1543 1543 1544 1545 1546 1546 1546 1546 1545 1545 1545 1545 1544 1544 1544 1544 1543 1543 1542 1542 1541 1540 1539 1538
1516 1518 1520 1522 1524 1526 1528 1530 1531 1533 1534 1534 1535 1536 1537 1537 1538 1539 1539 1540 1540 1541 1542 1543 1543 1543 1543 1543 1543 1542 1542 1541 1541 1541 1541 1540 1540 1540 1539 1538 1538 1537 1536
1514 1516 1518 1519 1521 1523 1525 1527 1528 1530 1531 1531 1532 1533 1534 1535 1536 1536 1537 1537 1538 1538 1539 1540 1540 1540 1540 1540 1540 1539 1539 1539 1538 1538 1538 1537 1537 1537 1536 1536 1535 1534 1533
1511 1513 1515 1517 1519 1520 1522 1524 1526 1527 1528 1529 1529 1530 1531 1531 1532 1533 1533 1534 1535 1535 1536 1536 1537 1537 1537 1536 1536 1536 1536 1535 1535 1535 1534 1534 1534 1533 1533 1533 1532 1531 1530
1508 1510 1512 1514 1516 1517 1519 1521 1522 1523 1525 1526 1526 1527 1527 1528 1529 1529 1530 1530 1531 1532 1532 1533 1533 1533 1532 1532 1532 1532 1532 1532 1531 1531 1531 1531 1531 1530 1530 1529 1529 1528 1527
1506 1507 1509 1511 1513 1515 1516 1518 1519 1520 1521 1522 1523 1523 1524 1525 1526 1527 1527 1527 1528 1528 1529 1529 1529 1529 1529 1528 1528 1528 1528 1528 1528 1528 1528 1528 1527 1527 1526 1526 1526 1525 1524
1503 1504 1506 1508 1510 1511 1513 1515 1516 1517 1518 1519 1520 1520 1520 1522 1523 1523 1524 1524 1524 1525 1525 1526 1526 1526 1526 1525 1525 1525 1525 1525 1525 1525 1524 1524 1524 1523 1523 1522 1522 1521 1520
1500 1502 1503 1505 1506 1507 1509 1511 1513 1514 1515 1515 1516 1517 1517 1517 1518 1519 1520 1520 1521 1521 1522 1522 1522 1522 1522 1522 1522 1522 1522 1522 1522 1521 1521 1521 1520 1520 1519 1518 1518 1517 1516
1498 1499 1501 1502 1503 1504 1506 1507 1509 1510 1511 1512 1513 1513 1514 1514 1515 1516 1517 1517 1517 1518 1518 1518 1519 1519 1518 1518 1519 1518 1518 1518 1518 1518 1517 1517 1517 1517 1516 1515 1514 1514 1513
1496 1497 1498 1499 1500 1501 1503 1504 1505 1507 1508 1509 1509 1510 1511 1512 1512 1513 1513 1513 1514 1514 1515 1515 1515 1515 1515 1515 1515 1515 1514 1514 1514 1514 1514 1514 1514 1513 1512 1512 1511 1510 1509
1493 1494 1495 1496 1497 1499 1500 1501 1502 1504 1505 1506 1506 1507 1508 1508 1509 1510 1510 1510 1510 1511 1511 1512 1512 1512 1512 1512 1512 1511 1511 1510 1510 1510 1510 1510 1510 1509 1509 1508 1507 1507 1506